Flag for Germany Weather past 2 weeks in Lübbecke, North Rhine-Westphalia, Germany

Now
36 °F

Chilly.


Feels Like: 36 °F
Forecast: 36 / 55 °F
Wind: 1 mph from North

Location: Bueckeburg

Current Time: Apr 28, 2015 at 3:19:16 AM

Latest Report: Apr 28, 2015 at 2:20 AM


Visibility: N/A

Pressure: 29.86 "Hg

Humidity: 87%

Dew point: 32 °F

Location of LübbeckeLocation

Historic Weather in Lübbecke — Graph

°F

Lübbecke temperature yesterday

Maximum temperature yesterday: 52 °F (at 12:01 AM)
Minimum temperature yesterday: 41 °F (at 11:51 PM)
Average temperature yesterday: 47 °F

Past Weeks' High & Low Weather Summary

 TemperatureHumidityPressure
High73 °F (Apr 15, 3:20 PM)100% (Apr 23, 7:20 AM)30.45 "Hg (Apr 23, 7:20 AM)
Low34 °F (Apr 18, 5:20 AM)28% (Apr 21, 3:20 PM)29.62 "Hg (Apr 27, 3:46 AM)
Average51 °F69%30.08 "Hg
* Reported Apr 13 1:20 AM — Apr 28 1:20 AM, Lübbecke, Weather by CustomWeather, © 2015

Note: Actual official high and low records may vary slightly from our data, if they occured in-between our weather recording intervals... More about our weather records

Advertising

Lübbecke weather history for previous 24 hours

 ConditionsComfort  
Time TempWeatherWind HumidityBarometerVisibility
1:20 AM
Tue, Apr 28
39 °FChilly.3 mph75%29.86 "HgN/A
12:20 AM39 °FChilly.1 mph81%29.83 "HgN/A
11:51 PM
Mon, Apr 27
41 °FPassing clouds.2 mph70%29.83 "HgN/A
11:20 PM43 °FPassing clouds.5 mph71%29.83 "HgN/A
10:20 PM45 °FPartly cloudy.7 mph76%29.80 "HgN/A
9:20 PM46 °FBroken clouds.7 mph71%29.80 "HgN/A
8:20 PM48 °FPartly sunny.5 mph58%29.77 "HgN/A
7:20 PM50 °FPartly sunny.9 mph54%29.77 "HgN/A
6:20 PM50 °FPartly sunny.8 mph62%29.77 "HgN/A
5:20 PM50 °FBroken clouds.7 mph67%29.77 "HgN/A
4:20 PM50 °FPartly sunny.8 mph62%29.77 "HgN/A
3:20 PM50 °FBroken clouds.10 mph62%29.77 "HgN/A
2:20 PM48 °FPartly sunny.13 mph71%29.74 "HgN/A
1:20 PM46 °FPartly sunny.10 mph87%29.74 "HgN/A
1:00 PM46 °FFog.8 mph93%29.74 "Hg3 mi
12:48 PM45 °FFog.8 mph93%29.74 "Hg2 mi
12:20 PM45 °FDrizzle. Fog.9 mph93%29.74 "Hg1 mi
11:20 AM45 °FDrizzle. Fog.10 mph93%29.71 "Hg2 mi
10:20 AM45 °FDrizzle. Fog.10 mph93%29.68 "Hg3 mi
9:20 AM45 °FLight rain. Broken clouds.8 mph93%29.68 "Hg4 mi
8:58 AM45 °FLight rain. Fog.8 mph100%29.68 "Hg3 mi
8:20 AM46 °FRain. Fog.7 mph93%29.65 "Hg2 mi
7:20 AM46 °FRain. Fog.9 mph93%29.65 "Hg2 mi
6:50 AM46 °FRain. Fog.7 mph93%29.62 "Hg2 mi
6:20 AM46 °FRain. Fog.6 mph100%29.62 "Hg3 mi
5:20 AM46 °FRain. Fog.6 mph100%29.62 "Hg2 mi
4:20 AM48 °FRain. Fog.5 mph94%29.62 "Hg2 mi
3:46 AM48 °FRain. Fog.5 mph100%29.62 "Hg2 mi
3:20 AM48 °FLight rain. Fog.6 mph100%29.65 "Hg2 mi
Weather by CustomWeather, © 2015

See weather overviewHow to use our weather pages